This is the latest recevied weather packets stored in our database for station/object KQ4OSL. If no packets are shown the sender has not sent any weather packets the latest 10 day(s).
| Time | Temp. | Humidity | Pressure | Rain* | Wind** | Luminosity | Snow |
|---|---|---|---|---|---|---|---|
| 1777719194 | 11.11° C | 82% | 1014.2 hPa | 0 mm | - | 1 W/m² | - |
| 1777718892 | 11.11° C | 81% | 1014.2 hPa | 0 mm | - | 0 W/m² | - |
| 1777718589 | 10.56° C | 81% | 1014.1 hPa | 0 mm | - | 0 W/m² | - |
| 1777718286 | 10.56° C | 87% | 1014.6 hPa | 0 mm | - | 0 W/m² | - |
| 1777717983 | 11.11° C | 89% | 1014.4 hPa | 0 mm | - | 0 W/m² | - |
| 1777717681 | 11.11° C | 79% | 1014.3 hPa | 0 mm | - | 0 W/m² | - |
| 1777717377 | 11.67° C | 79% | 1014.4 hPa | 0 mm | - | 0 W/m² | - |
| 1777717075 | 11.67° C | 78% | 1014.2 hPa | 0 mm | - | 0 W/m² | - |
| 1777716773 | 11.67° C | 78% | 1014.4 hPa | 0 mm | - | 0 W/m² | - |
| 1777716471 | 11.67° C | 79% | 1014.3 hPa | 0 mm | - | 0 W/m² | - |
| 1777716170 | 11.67° C | 81% | 1014.1 hPa | 0 mm | - | 0 W/m² | - |
| 1777715867 | 11.67° C | 82% | 1013.9 hPa | 0 mm | - | 0 W/m² | - |
| 1777715564 | 11.67° C | 80% | 1013.8 hPa | 0 mm | - | 0 W/m² | - |
| 1777715262 | 11.67° C | 81% | 1013.4 hPa | 0 mm | - | 0 W/m² | - |
| 1777714960 | 11.67° C | 82% | 1013.4 hPa | 0 mm | - | 0 W/m² | - |
| 1777714657 | 11.67° C | 82% | 1013 hPa | 0 mm | - | 0 W/m² | - |
| 1777714355 | 11.67° C | 84% | 1013.1 hPa | 0 mm | - | 0 W/m² | - |
| 1777714053 | 11.67° C | 85% | 1013 hPa | 0 mm | - | 0 W/m² | - |
| 1777713750 | 11.67° C | 85% | 1013.5 hPa | 0 mm | - | 0 W/m² | - |
| 1777713447 | 11.67° C | 86% | 1013.5 hPa | 0 mm | - | 0 W/m² | - |
| 1777713143 | 11.67° C | 87% | 1013.3 hPa | 0 mm | - | 0 W/m² | - |
| 1777712841 | 11.67° C | 87% | 1013.2 hPa | 0 mm | - | 0 W/m² | - |
| 1777712537 | 11.67° C | 87% | 1013.5 hPa | 0 mm | - | 0 W/m² | - |
| 1777712235 | 12.22° C | 87% | 1013.7 hPa | 0 mm | - | 0 W/m² | - |
| 1777711931 | 11.67° C | 87% | 1013.5 hPa | 0 mm | - | 0 W/m² | - |
* Rain latest hour (hover to see other rain measurements)
** Current wind speed in m/s (hover to see current wind gust speed)